STARLINK-2630 (48381 NORAD) Tracking and Keplerian Element Data

This shows tracking and keplerian element data for the satellite.

Feedback or suggestion? Click here.




ElementValue
Catalog48381
NameSTARLINK-2630
Epoch Orbit1400
Epoch Day211.10932963
Epoch Year2021
RAAN349.4699
Inclination53.059
Eccentricity0.0001281
Argument of Perigee88.6187
Mean Anonmoly271.4949
Mean Motion15.06398047
Decay Rate-2.29E-06
L11 48381U 21038AE 21211.10932963 -.00000229 00000-0 35274-5 0 9998
L22 48381 53.0590 349.4699 0001281 88.6187 271.4949 15.06398047 14006

Live tracking and technical data element details for STARLINK-2630 (NORAD 48381). STARLINK-2630 can be tracked NOW for your location showing map with azimuth and elevation plus other details from your city location.

Track the satellite on the map from your city or location and see movement details for azimuth, elevation, latitude, longitude, range, height, and movement on the map or in text.







IsCatalogInMostPopularTable: catalog: 48381, numindb: 36
Update: records affected: 1



GetName: 48381 STARLINK-2630

Hit Count: updated at: Sat, 31 Jul 2021 16:02:11 GMT